[[{"header":{"parameterUnit":"m.s-1","parameterCategory":1,"la1":30.2991,"la2":30.254,"lo1":-89.0895,"lo2":-89.0444,"dy":0.0017,"dx":0.0017,"nx":28,"ny":28,"refTime":"2024-08-22T21:00:00:Z","depth":0,"parameterNumber":2,"parameterNumberName":"U-component_of_WINDS"},"data":[0,0,0,0,0,0,0,0,0,0,0,0,0,0,0,0,0,0,0,0,0,0,0,0,0,0,0,0,0,0,0,0,0,0,0,0,0,0,0,0,0,0,0,0,0,0,0,0,0,0,0,0,0,0,0,0,0,0,-6.5446,-6.5446,0,-6.5467,-6.5467,-6.5468,-6.5362,-6.5358,-6.5355,-6.5353,-6.537,-6.5373,-6.5377,0,0,0,0,0,0,0,0,0,0,0,0,0,-6.5311,-6.5314,-6.5446,-6.5446,-6.5447,-6.5467,-6.5467,-6.5468,-6.5362,-6.5358,-6.5355,-6.5351,-6.5369,-6.5373,-6.5377,0,0,0,0,0,0,0,0,0,0,0,0,0,-6.5355,-6.5315,-6.5446,-6.5397,-6.5392,-6.5467,-6.5467,-6.5468,-6.5363,-6.5358,-6.5354,-6.5349,-6.5368,-6.5373,-6.5378,-6.55,0,0,-6.5393,-6.5395,0,0,0,0,0,0,0,0,-6.5352,-6.536,-6.5404,-6.54,-6.5395,-6.5407,-6.5426,-6.5478,-6.5364,-6.5374,-6.5352,-6.5347,-6.5386,-6.5389,-6.5403,-6.55,-6.5501,-6.5393,-6.5396,-6.5398,-6.54,0,0,0,0,0,0,0,-6.535,-6.5358,-6.5454,-6.5404,-6.5399,-6.5372,-6.5373,-6.5436,-6.5405,-6.5373,-6.5365,-6.5369,-6.5383,-6.5398,-6.5403,-6.5501,-6.5393,-6.5397,-6.54,-6.5402,-6.5699,-6.5704,0,0,0,0,0,0,-6.5354,-6.5357,-6.5453,-6.5455,-6.5362,-6.5378,-6.538,-6.5408,-6.5404,-6.5399,-6.5373,-6.5364,-6.5392,-6.5397,-6.5403,-6.5544,-6.5398,-6.5403,-6.5406,-6.5694,-6.57,-6.5706,0,0,0,0,0,0,-6.5351,-6.5363,-6.5453,-6.5404,-6.5413,-6.5386,-6.5418,-6.5411,-6.5426,-6.5405,-6.5398,-6.5395,-6.5389,-6.5396,-6.5476,-6.5543,-6.5405,-6.541,-6.5689,-6.5696,-6.5703,-6.5828,0,0,0,0,0,0,-6.5348,-6.5363,-6.541,-6.5406,-6.5416,-6.5527,-6.5422,-6.5414,-6.5435,-6.5424,-6.5423,-6.5419,-6.5386,-6.547,-6.5481,-6.5547,-6.5413,-6.5682,-6.5692,-6.5701,-6.5818,-6.5839,-6.5857,0,0,0,0,0,-6.5343,-6.5443,-6.5413,-6.5425,-6.5474,-6.5531,-6.5537,-6.5498,-6.5441,-6.5487,-6.5474,-6.5419,-6.5535,-6.5479,-6.5491,-6.556,-6.5678,-6.5689,-6.57,-6.5809,-6.5835,-6.5856,0,0,0,0,0,0,-6.5454,-6.5442,-6.5407,-6.5509,-6.5523,-6.5513,-6.557,-6.5527,-6.5555,-6.5542,-6.5492,-6.5493,-6.5582,-6.5579,-6.5517,-6.5677,-6.5596,-6.561,-6.5675,-6.5699,-6.5718,-6.5715,-6.5418,0,0,0,0,0,-6.5491,-6.5539,-6.5526,-6.5617,-6.5625,-6.5597,-6.5621,-6.559,-6.5601,-6.5605,-6.5597,-6.5609,-6.5647,-6.5674,-6.5708,-6.5819,-6.5816,-6.5872,-6.5891,-6.5908,-6.5919,-6.5976,-6.6,-6.5742,-6.5742,-6.5742,0,0,-6.5566,-6.5565,-6.5599,-6.5639,-6.5645,-6.5696,-6.5602,-6.5659,-6.5695,-6.5613,-6.5688,-6.5684,-6.5693,-6.5789,-6.583,-6.5789,-6.599,-6.5922,-6.5935,-6.5937,-6.599,-6.6014,-6.6036,-6.5749,-6.5748,-6.5747,0,0,-6.5728,-6.5734,-6.5809,-6.5819,-6.583,-6.5811,-6.583,-6.5828,-6.5822,-6.5897,-6.5837,-6.5879,-6.5948,-6.5956,-6.597,-6.6139,-6.6088,-6.6152,-6.6252,-6.6308,-6.6328,-6.6346,-6.6403,-6.6425,-6.6164,-6.6165,-6.6165,0,-6.5819,-6.5893,-6.5854,-6.5915,-6.5934,-6.5865,-6.5941,-6.5951,-6.5973,-6.5987,-6.5942,-6.6026,-6.6028,-6.6124,-6.6166,-6.618,-6.6198,-6.6149,-6.6329,-6.6346,-6.6362,-6.6416,-6.6439,-6.6172,-6.6171,-6.617,-6.617,0,-6.6004,-6.6057,-6.6116,-6.6141,-6.6167,-6.6236,-6.6206,-6.6237,-6.6205,-6.6191,-6.6268,-6.6269,-6.6302,-6.6323,-6.6292,-6.6415,-6.6389,-6.6338,-6.6254,-6.6395,-6.6445,-6.6465,-6.6182,-6.618,-6.6178,-6.6176,0,0,-6.6231,-6.6236,-6.6258,-6.6268,-6.6278,-6.6317,-6.6383,-6.6417,-6.6443,-6.6462,-6.6514,-6.6576,-6.6528,-6.6544,-6.6513,-6.6563,-6.6694,-6.6505,-6.6504,-6.6537,-6.6827,-6.6864,-6.6889,-6.6663,-6.6667,-6.667,-6.6826,0,-6.6388,-6.65,-6.6468,-6.658,-6.6627,-6.6564,-6.6621,-6.6632,-6.6622,-6.6659,-6.6647,-6.669,-6.6625,-6.6634,-6.6681,-6.6668,-6.6751,-6.6657,-6.6708,-6.6711,-6.6704,-6.6915,-6.6954,-6.71,-6.6845,-6.6849,-6.6851,0,-6.6584,-6.6612,-6.673,-6.6732,-6.675,-6.6802,-6.6831,-6.6869,-6.688,-6.6869,-6.6888,-6.6848,-6.6911,-6.6832,-6.6917,-6.6854,-6.6874,-6.6871,-6.6876,-6.6876,-6.6786,-6.6918,-6.7146,-6.7167,-6.6882,-6.688,-6.6877,0,-6.6735,-6.6803,-6.6881,-6.6893,-6.6897,-6.6935,-6.6939,-6.6946,-6.6969,-6.6994,-6.7008,-6.7041,-6.7058,-6.7083,-6.7053,-6.6998,-6.7142,-6.706,-6.7132,-6.7133,-6.7162,-6.716,-6.7393,-6.7181,-6.7181,-6.7181,-6.718,0,-6.6911,-6.6984,-6.6949,-6.6997,-6.7078,-6.7041,-6.7121,-6.7117,-6.7125,-6.717,-6.7118,-6.7161,-6.7121,-6.716,-6.7137,-6.721,-6.7219,-6.721,-6.7202,-6.7213,-6.7213,-6.7221,-6.7209,-6.7186,-6.7185,-6.7184,-6.7183,0,-6.7091,-6.7071,-6.7152,-6.7151,-6.7153,-6.7212,-6.721,-6.7254,-6.7241,-6.7299,-6.7311,-6.729,-6.7334,-6.7307,-6.7352,-6.7336,-6.7431,-6.7411,-6.7427,-6.742,-6.7492,-6.7485,-6.7736,-6.7766,-6.7539,-6.7541,-6.7543,0,-6.7202,-6.7258,-6.7264,-6.7291,-6.7299,-6.7344,-6.7367,-6.7334,-6.736,-6.7379,-6.742,-6.746,-6.749,-6.7563,-6.7551,-6.7584,-6.7563,-6.7649,-6.7567,-6.7575,-6.756,-6.7556,-6.756,-6.7664,-6.7666,-6.7669,-6.767,0,-6.7402,-6.739,-6.7426,-6.746,-6.7491,-6.7515,-6.7535,-6.7561,-6.7527,-6.7559,-6.7605,-6.7628,-6.7675,-6.7714,-6.7743,-6.7745,-6.7702,-6.7697,-6.7715,-6.7724,-6.7729,-6.7724,-6.7468,-6.769,-6.7688,-6.7687,-6.7686,-6.7685,-6.7548,-6.7594,-6.7606,-6.7649,-6.7661,-6.7682,-6.7723,-6.7716,-6.7754,-6.7789,-6.7768,-6.7821,-6.7831,-6.7866,-6.7874,-6.7914,-6.7879,-6.7906,-6.7912,-6.7918,-6.7926,-6.7727,-6.792,-6.7919,-6.7919,-6.7918,-6.7918,0,-6.7742,-6.7747,-6.7788,-6.7818,-6.7852,-6.7812,-6.7833,-6.7863,-6.791,-6.7925,-6.7956,-6.8008,-6.8047,-6.8039,-6.8074,-6.8107,-6.8088,-6.8117,-6.8112,-6.8113,-6.7957,-6.7937,-6.8132,-6.8132,-6.8132,-6.8132,-6.8132,-6.8132,-6.7846,-6.7922,-6.7912,-6.7992,-6.7997,-6.8049,-6.8064,-6.8082,-6.8094,-6.8155,-6.8187,-6.8183,-6.8188,-6.8223,-6.8257,-6.8254,-6.8267,-6.8303,-6.8292,-6.8146,-6.8124,-6.8104,-6.8084,-6.8307,-6.8307,-6.8444,-6.8445,-6.8446]},{"header":{"parameterUnit":"m.s-1","parameterCategory":1,"la1":30.2991,"la2":30.254,"lo1":-89.0895,"lo2":-89.0444,"dy":0.0017,"dx":0.0017,"nx":28,"ny":28,"refTime":"2024-08-22T21:00:00:Z","depth":0,"parameterNumber":3,"parameterNumberName":"V-component_of_WINDS"},"data":[0,0,0,0,0,0,0,0,0,0,0,0,0,0,0,0,0,0,0,0,0,0,0,0,0,0,0,0,0,0,0,0,0,0,0,0,0,0,0,0,0,0,0,0,0,0,0,0,0,0,0,0,0,0,0,0,0,0,0.8018,0.8018,0,0.8049,0.805,0.805,0.8107,0.8108,0.8109,0.8111,0.8137,0.8136,0.8136,0,0,0,0,0,0,0,0,0,0,0,0,0,0.8003,0.8003,0.8018,0.8018,0.8018,0.8049,0.805,0.805,0.8107,0.8108,0.811,0.8111,0.8137,0.8136,0.8136,0,0,0,0,0,0,0,0,0,0,0,0,0,0.8019,0.8003,0.8018,0.8051,0.8054,0.8049,0.805,0.805,0.8107,0.8108,0.811,0.8112,0.8137,0.8136,0.8136,0.8099,0,0,0.8134,0.8134,0,0,0,0,0,0,0,0,0.8018,0.802,0.8045,0.8048,0.8052,0.8076,0.8054,0.8066,0.8106,0.8087,0.8111,0.8112,0.8115,0.8116,0.8118,0.81,0.8102,0.8134,0.8134,0.8134,0.8133,0,0,0,0,0,0,0,0.8017,0.8019,0.803,0.8046,0.805,0.8063,0.8067,0.8057,0.8091,0.8088,0.8093,0.8096,0.8117,0.8119,0.8119,0.8102,0.8134,0.8134,0.8133,0.8133,0.8057,0.8055,0,0,0,0,0,0,0.8012,0.8017,0.8029,0.8031,0.8039,0.8062,0.8067,0.8067,0.8091,0.8096,0.8094,0.8098,0.8119,0.812,0.812,0.8079,0.8134,0.8133,0.8133,0.8059,0.8057,0.8055,0,0,0,0,0,0,0.8011,0.8012,0.8028,0.8026,0.8029,0.806,0.806,0.8066,0.8068,0.8096,0.8101,0.809,0.812,0.8121,0.8105,0.8081,0.8133,0.8132,0.8061,0.8058,0.8056,0.7996,0,0,0,0,0,0,0.8011,0.8012,0.7999,0.8025,0.8028,0.8012,0.8059,0.8066,0.8068,0.8073,0.8093,0.8098,0.8121,0.8105,0.8104,0.8081,0.8132,0.8063,0.806,0.8057,0.8,0.7992,0.7984,0,0,0,0,0,0.801,0.7979,0.7998,0.7999,0.8013,0.8011,0.8013,0.8042,0.8066,0.8052,0.8071,0.8097,0.8085,0.8103,0.8102,0.8079,0.8064,0.8061,0.8057,0.8004,0.7993,0.7985,0,0,0,0,0,0,0.7946,0.7983,0.8004,0.7981,0.7993,0.8021,0.8004,0.803,0.8033,0.8038,0.8073,0.8077,0.8056,0.8066,0.8086,0.8045,0.8079,0.8075,0.8039,0.8029,0.8021,0.8018,0.8132,0,0,0,0,0,0.793,0.7927,0.7959,0.7935,0.7941,0.7972,0.7972,0.7994,0.8006,0.8011,0.8028,0.8037,0.8036,0.8034,0.8033,0.8004,0.8008,0.7987,0.7979,0.7973,0.7967,0.7952,0.7943,0.8042,0.8042,0.8042,0,0,0.7895,0.7915,0.791,0.7923,0.7935,0.7929,0.7975,0.7967,0.7963,0.8009,0.7995,0.8008,0.8021,0.7998,0.7989,0.8006,0.7942,0.7968,0.7962,0.7961,0.7947,0.7938,0.793,0.804,0.804,0.804,0,0,0.7829,0.7845,0.7827,0.7839,0.7857,0.7879,0.7875,0.79,0.7911,0.7898,0.7933,0.7928,0.7925,0.7933,0.7937,0.7878,0.7902,0.7877,0.7834,0.7819,0.7811,0.7805,0.7782,0.7774,0.7873,0.7872,0.7872,0,0.7783,0.7778,0.7814,0.7805,0.7809,0.7854,0.7836,0.7845,0.7861,0.7863,0.7883,0.7881,0.7893,0.7873,0.7859,0.7861,0.7856,0.7873,0.781,0.7804,0.7798,0.7777,0.7768,0.7869,0.7869,0.787,0.787,0,0.7719,0.7715,0.7699,0.7716,0.7719,0.7705,0.7739,0.7737,0.7761,0.778,0.7766,0.7784,0.7788,0.7786,0.7807,0.7768,0.7779,0.7804,0.7838,0.7784,0.7765,0.7757,0.7864,0.7865,0.7866,0.7867,0,0,0.7609,0.7651,0.7643,0.7652,0.7678,0.7675,0.7664,0.7671,0.7668,0.7679,0.7669,0.7668,0.7692,0.7696,0.772,0.7707,0.7658,0.7734,0.7735,0.7718,0.7616,0.7594,0.7584,0.7677,0.7675,0.7674,0.7614,0,0.7547,0.753,0.7564,0.7539,0.7536,0.7581,0.7571,0.7585,0.7604,0.7603,0.7623,0.7621,0.7654,0.7657,0.7647,0.7666,0.7638,0.7672,0.7665,0.7665,0.7657,0.7575,0.7551,0.7494,0.7607,0.7606,0.7605,0,0.747,0.748,0.7455,0.7484,0.7483,0.7474,0.7484,0.7483,0.75,0.7515,0.7522,0.7551,0.7541,0.7577,0.7563,0.7585,0.7585,0.7595,0.7593,0.7591,0.7629,0.7568,0.7476,0.7466,0.7594,0.7595,0.7595,0,0.739,0.7397,0.7383,0.739,0.7423,0.7416,0.7429,0.7449,0.7451,0.746,0.7462,0.7469,0.7472,0.7476,0.7506,0.7529,0.7488,0.7526,0.7498,0.7497,0.7484,0.7483,0.7388,0.7489,0.7489,0.7489,0.7489,0,0.7314,0.7296,0.7348,0.7339,0.7321,0.7361,0.7342,0.736,0.7377,0.7372,0.7412,0.7406,0.7447,0.7445,0.7469,0.7453,0.7455,0.7465,0.747,0.7459,0.7458,0.7457,0.7461,0.7487,0.7487,0.7488,0.7488,0,0.7219,0.7254,0.7242,0.7276,0.7285,0.7269,0.7298,0.7291,0.7315,0.7307,0.7308,0.7343,0.7344,0.7375,0.7381,0.7397,0.737,0.7385,0.7365,0.7368,0.7337,0.7339,0.7236,0.7224,0.7334,0.7333,0.7333,0,0.7167,0.7155,0.719,0.719,0.7202,0.7202,0.7206,0.7246,0.7248,0.7269,0.7259,0.7264,0.7269,0.7267,0.7292,0.7297,0.7311,0.7275,0.7311,0.7301,0.7307,0.7306,0.7305,0.7265,0.7264,0.7263,0.7262,0,0.707,0.7089,0.7094,0.7105,0.7109,0.712,0.7132,0.713,0.7174,0.7175,0.7177,0.7181,0.719,0.7193,0.7204,0.7216,0.7245,0.7251,0.7244,0.7231,0.7218,0.7223,0.734,0.7252,0.7253,0.7253,0.7254,0.7254,0.6994,0.6986,0.7009,0.7013,0.7028,0.704,0.7035,0.706,0.7063,0.7074,0.7098,0.7096,0.7115,0.7133,0.7144,0.7142,0.716,0.7151,0.7148,0.7144,0.7137,0.7222,0.7144,0.7145,0.7145,0.7145,0.7146,0,0.6897,0.6915,0.692,0.6938,0.6941,0.6973,0.699,0.699,0.6988,0.7005,0.7011,0.7014,0.7018,0.7045,0.7053,0.7046,0.706,0.7046,0.7045,0.7047,0.7122,0.7126,0.7035,0.7035,0.7035,0.7035,0.7035,0.7035,0.6847,0.6834,0.6856,0.6852,0.687,0.687,0.6877,0.6888,0.6902,0.6904,0.6908,0.6928,0.6949,0.6958,0.6963,0.6971,0.6971,0.6952,0.6964,0.7032,0.7042,0.7052,0.7056,0.6952,0.6952,0.689,0.6889,0.6889]}]]